SWA370 KRSW-KBNA

Flight info

Callsign SWA370
Flight time N/A
Altitude 40000
Route CSHEL8 JAMIZ Q118 THRSR SWFFT3
Aircraft B737/M-SDE2E3FGHIRWXY/LB1

Departure

Time 2026-05-07 23:30
Airport Southwest Florida International Airport (KRSW)

Arrival

Time N/A
Airport Nashville International Airport (KBNA)
Time Latitude Longitude Altitude Speed Heading
2026-05-07 22:56 26.52836 -81.75336 43 ft 0 kts 144°
2026-05-07 23:12 26.52839 -81.75339 43 ft 3 kts 146°
2026-05-07 23:12 26.52862 -81.75351 41 ft 3 kts 152°
2026-05-07 23:13 26.52886 -81.75365 42 ft 4 kts 158°
2026-05-07 23:13 26.52878 -81.75391 42 ft 3 kts 45°
2026-05-07 23:13 26.52887 -81.75379 42 ft 0 kts 51°
2026-05-07 23:16 26.52888 -81.75378 42 ft 2 kts 51°
2026-05-07 23:16 26.52912 -81.75345 43 ft 6 kts 49°
2026-05-07 23:16 26.52940 -81.75309 43 ft 6 kts 51°
2026-05-07 23:16 26.52966 -81.75271 42 ft 6 kts 53°
2026-05-07 23:17 26.52990 -81.75234 40 ft 6 kts 54°
2026-05-07 23:17 26.53013 -81.75197 43 ft 6 kts 56°
2026-05-07 23:17 26.53036 -81.75160 42 ft 6 kts 53°
2026-05-07 23:17 26.53059 -81.75125 43 ft 6 kts 53°
2026-05-07 23:18 26.53082 -81.75091 41 ft 5 kts 53°
2026-05-07 23:18 26.53104 -81.75057 43 ft 5 kts 54°
2026-05-07 23:18 26.53132 -81.75031 43 ft 5 kts 14°
2026-05-07 23:18 26.53165 -81.75048 41 ft 5 kts 324°
2026-05-07 23:19 26.53195 -81.75073 43 ft 5 kts 323°
2026-05-07 23:19 26.53224 -81.75097 43 ft 5 kts 323°
2026-05-07 23:19 26.53253 -81.75120 43 ft 5 kts 325°
2026-05-07 23:19 26.53281 -81.75142 43 ft 5 kts 326°
2026-05-07 23:20 26.53310 -81.75163 43 ft 5 kts 324°
2026-05-07 23:20 26.53361 -81.75204 43 ft 16 kts 324°
2026-05-07 23:20 26.53469 -81.75293 43 ft 19 kts 324°
2026-05-07 23:20 26.53554 -81.75366 43 ft 1 kts 324°
2026-05-07 23:21 26.53578 -81.75366 43 ft 10 kts 14°
2026-05-07 23:21 26.53632 -81.75281 42 ft 14 kts 53°
2026-05-07 23:21 26.53691 -81.75190 42 ft 14 kts 53°
2026-05-07 23:21 26.53749 -81.75105 42 ft 14 kts 53°
2026-05-07 23:22 26.53803 -81.75021 42 ft 13 kts 56°
2026-05-07 23:22 26.53855 -81.74941 44 ft 13 kts 55°
2026-05-07 23:22 26.53906 -81.74862 43 ft 12 kts 54°
2026-05-07 23:22 26.53956 -81.74785 44 ft 12 kts 54°
2026-05-07 23:23 26.54004 -81.74710 43 ft 12 kts 52°
2026-05-07 23:23 26.54051 -81.74638 44 ft 11 kts 44°
2026-05-07 23:23 26.54100 -81.74570 44 ft 11 kts 56°
2026-05-07 23:23 26.54143 -81.74500 44 ft 11 kts 57°
2026-05-07 23:24 26.54186 -81.74433 44 ft 10 kts 53°
2026-05-07 23:24 26.54228 -81.74368 44 ft 10 kts 54°
2026-05-07 23:24 26.54267 -81.74304 43 ft 10 kts 56°
2026-05-07 23:24 26.54307 -81.74243 41 ft 10 kts 53°
2026-05-07 23:25 26.54346 -81.74183 43 ft 9 kts 52°
2026-05-07 23:25 26.54384 -81.74125 44 ft 9 kts 54°
2026-05-07 23:25 26.54421 -81.74069 42 ft 9 kts 53°
2026-05-07 23:25 26.54458 -81.74014 41 ft 9 kts 51°
2026-05-07 23:26 26.54478 -81.73997 42 ft 0 kts 24°
2026-05-07 23:28 26.54479 -81.73997 42 ft 1 kts 24°
2026-05-07 23:29 26.54530 -81.74010 44 ft 12 kts 323°
2026-05-07 23:29 26.54536 -81.74106 41 ft 16 kts 232°
2026-05-07 23:29 26.54353 -81.74384 42 ft 79 kts 234°
2026-05-07 23:29 26.53910 -81.75066 46 ft 135 kts 234°
2026-05-07 23:30 26.53303 -81.75983 391 ft 151 kts 238°
2026-05-07 23:30 26.52668 -81.76932 981 ft 151 kts 236°
2026-05-07 23:30 26.52035 -81.77894 1591 ft 154 kts 237°
2026-05-07 23:30 26.51393 -81.78889 2189 ft 171 kts 239°
2026-05-07 23:31 26.50652 -81.80111 2538 ft 207 kts 240°
2026-05-07 23:31 26.49852 -81.81586 2903 ft 231 kts 252°
2026-05-07 23:31 26.49656 -81.83351 3766 ft 232 kts 269°
2026-05-07 23:31 26.49597 -81.85156 4750 ft 233 kts 274°
2026-05-07 23:32 26.50035 -81.86948 5245 ft 256 kts 303°
2026-05-07 23:32 26.51367 -81.88313 5862 ft 269 kts 332°
2026-05-07 23:32 26.53145 -81.89010 6738 ft 274 kts 345°
2026-05-07 23:32 26.55016 -81.89531 7585 ft 281 kts 345°
2026-05-07 23:33 26.56930 -81.90075 8403 ft 289 kts 345°
2026-05-07 23:33 26.58905 -81.90653 9255 ft 297 kts 344°
2026-05-07 23:33 26.60917 -81.91252 10170 ft 303 kts 343°
2026-05-07 23:33 26.63027 -81.91849 10650 ft 326 kts 349°
2026-05-07 23:34 26.65376 -81.91778 11065 ft 349 kts
2026-05-07 23:34 26.67797 -81.91348 11901 ft 353 kts
2026-05-07 23:34 26.70226 -81.90922 12877 ft 354 kts
2026-05-07 23:34 26.72679 -81.90517 13835 ft 357 kts
2026-05-07 23:35 26.75151 -81.90124 14650 ft 361 kts
2026-05-07 23:35 26.77627 -81.89543 15467 ft 369 kts 18°
2026-05-07 23:35 26.79929 -81.88212 16318 ft 375 kts 27°
2026-05-07 23:35 26.82191 -81.86719 17123 ft 380 kts 27°
2026-05-07 23:36 26.84482 -81.85193 17901 ft 385 kts 27°
2026-05-07 23:36 26.86777 -81.83687 18622 ft 390 kts 26°
2026-05-07 23:36 26.89171 -81.82142 19290 ft 395 kts 26°
2026-05-07 23:36 26.91539 -81.80626 19927 ft 400 kts 25°
2026-05-07 23:37 26.93985 -81.79108 20573 ft 404 kts 22°
2026-05-07 23:37 26.96513 -81.77687 21181 ft 409 kts 21°
2026-05-07 23:37 26.99082 -81.76277 21804 ft 413 kts 20°
2026-05-07 23:37 27.01780 -81.75274 22381 ft 407 kts
2026-05-07 23:38 27.04574 -81.75244 23018 ft 398 kts 346°
2026-05-07 23:38 27.07242 -81.75988 23663 ft 395 kts 338°
2026-05-07 23:38 27.09873 -81.76909 24167 ft 398 kts 336°
2026-05-07 23:38 27.12520 -81.77873 24671 ft 401 kts 336°
2026-05-07 23:39 27.15189 -81.78841 25188 ft 405 kts 337°
2026-05-07 23:39 27.17880 -81.79802 25706 ft 408 kts 337°
2026-05-07 23:39 27.20598 -81.80758 26223 ft 411 kts 337°
2026-05-07 23:39 27.23338 -81.81713 26719 ft 414 kts 338°
2026-05-07 23:40 27.26103 -81.82671 27243 ft 417 kts 337°
2026-05-07 23:40 27.28886 -81.83634 27730 ft 420 kts 337°
2026-05-07 23:40 27.31688 -81.84605 28193 ft 423 kts 337°
2026-05-07 23:40 27.34512 -81.85585 28640 ft 426 kts 337°
2026-05-07 23:41 27.37358 -81.86573 29087 ft 430 kts 337°
2026-05-07 23:41 27.40225 -81.87567 29535 ft 433 kts 337°
2026-05-07 23:41 27.43113 -81.88568 29973 ft 436 kts 337°
2026-05-07 23:41 27.46016 -81.89575 30344 ft 438 kts 337°
2026-05-07 23:42 27.48901 -81.90577 30704 ft 441 kts 337°
2026-05-07 23:42 27.51839 -81.91598 31052 ft 443 kts 337°
2026-05-07 23:42 27.54793 -81.92625 31399 ft 445 kts 338°
2026-05-07 23:42 27.57759 -81.93658 31732 ft 448 kts 338°
2026-05-07 23:43 27.60743 -81.94698 32079 ft 450 kts 337°
2026-05-07 23:43 27.63729 -81.95740 32526 ft 449 kts 337°
2026-05-07 23:43 27.66706 -81.96778 33064 ft 446 kts 337°
2026-05-07 23:43 27.69659 -81.97810 33596 ft 444 kts 337°
2026-05-07 23:44 27.72608 -81.98842 34064 ft 443 kts 337°
2026-05-07 23:44 27.75546 -81.99870 34425 ft 443 kts 337°
2026-05-07 23:44 27.78489 -82.00898 34787 ft 442 kts 338°
2026-05-07 23:44 27.81435 -82.01903 35168 ft 442 kts 338°
2026-05-07 23:45 27.84376 -82.02887 35565 ft 440 kts 338°
2026-05-07 23:45 27.87310 -82.03865 35981 ft 438 kts 338°
2026-05-07 23:45 27.90232 -82.04841 36356 ft 437 kts 338°
2026-05-07 23:45 27.93143 -82.05818 36677 ft 437 kts 338°
2026-05-07 23:46 27.96056 -82.06800 36993 ft 437 kts 338°
2026-05-07 23:46 27.98966 -82.07784 37336 ft 436 kts 338°
2026-05-07 23:46 28.01870 -82.08765 37670 ft 435 kts 338°
2026-05-07 23:46 28.04765 -82.09743 38004 ft 434 kts 338°
2026-05-07 23:47 28.07664 -82.10718 38309 ft 435 kts 339°
2026-05-07 23:47 28.10653 -82.11369 38609 ft 441 kts 348°
2026-05-07 23:47 28.13716 -82.11683 38892 ft 443 kts 349°
2026-05-07 23:47 28.16789 -82.11911 39181 ft 442 kts 350°
2026-05-07 23:48 28.19851 -82.12131 39458 ft 440 kts 349°
2026-05-07 23:48 28.22898 -82.12373 39693 ft 439 kts 349°
2026-05-07 23:48 28.25946 -82.12640 39896 ft 439 kts 349°
2026-05-07 23:48 28.28995 -82.12927 40036 ft 440 kts 348°
2026-05-07 23:49 28.35100 -82.13525 40033 ft 439 kts 348°
2026-05-07 23:49 28.41179 -82.14117 40031 ft 437 kts 348°
2026-05-07 23:50 28.47190 -82.14877 40008 ft 427 kts 336°
2026-05-07 23:50 28.49856 -82.16173 40038 ft 412 kts 323°
2026-05-07 23:50 28.51447 -82.17335 40034 ft 409 kts 320°
2026-05-07 23:51 28.56825 -82.21677 40032 ft 408 kts 319°
2026-05-07 23:51 28.61439 -82.25457 40030 ft 409 kts 319°
2026-05-07 23:52 28.66091 -82.29214 40036 ft 411 kts 319°
2026-05-07 23:52 28.69986 -82.32335 40035 ft 413 kts 319°
2026-05-07 23:53 28.74692 -82.36101 40075 ft 414 kts 319°
2026-05-07 23:53 28.79415 -82.39881 40050 ft 415 kts 319°
2026-05-07 23:54 28.84132 -82.43660 40010 ft 414 kts 319°
2026-05-07 23:54 28.88832 -82.47430 40016 ft 412 kts 319°
2026-05-07 23:55 28.93509 -82.51186 40033 ft 410 kts 319°
2026-05-07 23:55 28.98167 -82.54936 40032 ft 409 kts 319°
2026-05-07 23:56 29.02810 -82.58676 40024 ft 408 kts 319°
2026-05-07 23:56 29.07443 -82.62409 40028 ft 407 kts 318°